Oak Ridge, TN

5:13 AM EST on December 13, 2017 (GMT -0500)
Oak Ridge

Weather History for KOQT - August, 2014

Change the Weather History Date:

Friday, August 22, 2014

  Actual Average (KTYS) Record (KTYS)
Temperature  
Mean Temperature 81 °F -  
Max Temperature 93 °F 86 °F 99 °F (1968)
Min Temperature 71 °F 67 °F 53 °F (1956)
Cooling Degree Days 16    
Growing Degree Days 31 (Base 50)    
Moisture  
Dew Point 72 °F    
Average Humidity 79    
Maximum Humidity 96    
Minimum Humidity 47    
Precipitation  
Precipitation 0.00 in - - ()
Sea Level Pressure  
Sea Level Pressure 30.05 in    
Wind  
Wind Speed 1 mph (SW)    
Max Wind Speed 7 mph    
Max Gust Speed -    
Visibility 10 miles    
Events      
Averages and records for this station are not official NWS values.
T = Trace of Precipitation, MM = Missing Value Source: NWS Daily Summary

Daily Weather History Graph

Daily Weather History Graph

Search for Another Location

Airport or City:

Trip Planner

Search our weather history database for the weather conditions in past years. The results will help you decide how hot, cold, wet, or windy it might be!

Date:

Astronomy

Aug. 22, 2014 Rise Set
Actual Time 7:00 AM EDT 8:18 PM EDT
Civil Twilight 6:34 AM EDT 8:44 PM EDT
Nautical Twilight 6:02 AM EDT 9:16 PM EDT
Astronomical Twilight 5:28 AM EDT 9:49 PM EDT
Moon 4:25 AM EDT (8/22) 6:24 PM EDT (8/22)
Length of Visible Light 14h 10m
Length of Day
13h 17m
Waning Crescent, 8% of the Moon is Illuminated
Aug 22
Waning Crescent
Aug 25
New
Sep 2
First Quarter
Sep 8
Full
Sep 15
Last Quarter

Hourly Weather History & Observations

Time (EDT) Temp. Heat Index Dew Point Humidity Pressure Visibility Wind Dir Wind Speed Gust Speed Precip Events Conditions
12:53 AM 75.9 °F - 73.0 °F 91% 30.09 in 10.0 mi Calm Calm - N/A   Clear
1:53 AM 75.0 °F - 73.0 °F 94% 30.07 in 10.0 mi Calm Calm - N/A   Clear
2:53 AM 75.0 °F - 72.0 °F 90% 30.04 in 10.0 mi Calm Calm - N/A   Clear
3:53 AM 73.9 °F - 72.0 °F 93% 30.04 in 10.0 mi Calm Calm - N/A   Partly Cloudy
4:53 AM 73.9 °F - 71.1 °F 91% 30.04 in 10.0 mi Calm Calm - N/A   Clear
5:53 AM 73.9 °F - 72.0 °F 93% 30.04 in 10.0 mi Calm Calm - N/A   Clear
6:22 AM 73.0 °F - 71.1 °F 93% 30.10 in 10.0 mi Calm Calm - N/A   Partly Cloudy
6:42 AM 72.0 °F - 70.0 °F 93% 30.10 in 10.0 mi Calm Calm - N/A   Mostly Cloudy
6:53 AM 72.0 °F - 70.0 °F 93% 30.06 in 10.0 mi Calm Calm - N/A   Mostly Cloudy
7:06 AM 71.1 °F - 70.0 °F 96% 30.11 in 10.0 mi Calm Calm - N/A   Partly Cloudy
7:31 AM 73.0 °F - 71.1 °F 93% 30.11 in 9.0 mi Calm Calm - N/A   Mostly Cloudy
7:39 AM 73.0 °F - 71.1 °F 93% 30.12 in 10.0 mi Calm Calm - N/A   Scattered Clouds
7:53 AM 73.9 °F - 71.1 °F 91% 30.07 in 10.0 mi Calm Calm - N/A   Partly Cloudy
8:32 AM 75.0 °F - 72.0 °F 90% 30.14 in 10.0 mi WSW 4.6 mph - N/A   Mostly Cloudy
8:53 AM 75.9 °F - 72.0 °F 87% 30.10 in 10.0 mi West 4.6 mph - N/A   Overcast
9:27 AM 78.1 °F - 73.0 °F 84% 30.13 in 10.0 mi Variable 4.6 mph - N/A   Scattered Clouds
9:53 AM 80.1 °F 84.2 °F 73.0 °F 79% 30.08 in 10.0 mi Variable 4.6 mph - N/A   Partly Cloudy
10:53 AM 82.9 °F 88.8 °F 73.0 °F 72% 30.08 in 10.0 mi WSW 5.8 mph - N/A   Scattered Clouds
11:53 AM 86.0 °F 93.0 °F 73.0 °F 65% 30.08 in 10.0 mi Variable 3.5 mph - N/A   Clear
12:53 PM 88.0 °F 94.7 °F 72.0 °F 59% 30.06 in 10.0 mi Variable 6.9 mph - N/A   Scattered Clouds
1:53 PM 90.0 °F 96.9 °F 72.0 °F 55% 30.04 in 10.0 mi Variable 4.6 mph - N/A   Clear
2:53 PM 91.9 °F 96.9 °F 69.1 °F 47% 30.02 in 10.0 mi Variable 5.8 mph - N/A   Clear
3:53 PM 91.0 °F 96.6 °F 70.0 °F 50% 29.99 in 10.0 mi Variable 5.8 mph - N/A   Partly Cloudy
5:53 PM 91.0 °F 96.6 °F 70.0 °F 50% 29.98 in 10.0 mi South 6.9 mph - N/A   Clear
6:53 PM 89.1 °F 94.1 °F 70.0 °F 53% 29.97 in 10.0 mi Variable 3.5 mph - N/A   Partly Cloudy
7:53 PM 87.1 °F 93.6 °F 72.0 °F 61% 29.96 in 10.0 mi SSW 5.8 mph - N/A   Clear
8:53 PM 82.9 °F 88.8 °F 73.0 °F 72% 29.98 in 10.0 mi Calm Calm - N/A   Clear
9:53 PM 81.0 °F 85.8 °F 73.0 °F 77% 30.00 in 10.0 mi Calm Calm - N/A   Clear
10:53 PM 79.0 °F - 73.9 °F 84% 30.01 in 10.0 mi Calm Calm - N/A   Clear
11:53 PM 77.0 °F - 73.0 °F 88% 30.01 in 10.0 mi Calm Calm - N/A   Clear